Time,TemperatureF,DewpointF,PressureIn,WindDirection,WindDirectionDegrees,WindSpeedMPH,WindSpeedGustMPH,Humidity,HourlyPrecipIn,Conditions,Clouds,dailyrainin,SoftwareType,DateUTC
2013-05-24 00:04:00,49.2,40.0,29.79,WSW,247,16.0,-999.0,71,-99.99,,,0.00,weatherlink.com 1.10,2013-05-24 04:04:00,
2013-05-24 00:19:00,49.2,40.0,29.78,WNW,285,11.0,-999.0,71,-99.99,,,0.00,weatherlink.com 1.10,2013-05-24 04:19:00,
2013-05-24 00:34:00,49.1,40.0,29.79,WSW,243,15.0,-999.0,71,-99.99,,,0.00,weatherlink.com 1.10,2013-05-24 04:34:00,
2013-05-24 00:50:00,48.8,40.0,29.78,WSW,252,10.0,-999.0,71,-99.99,,,0.00,weatherlink.com 1.10,2013-05-24 04:50:00,
2013-05-24 01:05:00,48.9,40.0,29.79,West,263,7.0,-999.0,71,-99.99,,,0.01,weatherlink.com 1.10,2013-05-24 05:05:00,
2013-05-24 01:20:00,48.5,39.0,29.78,WSW,248,18.0,-999.0,71,-99.99,,,0.03,weatherlink.com 1.10,2013-05-24 05:20:00,
2013-05-24 01:35:00,47.9,39.0,29.78,WSW,246,12.0,-999.0,71,-99.99,,,0.03,weatherlink.com 1.10,2013-05-24 05:35:00,
2013-05-24 01:50:00,47.8,39.0,29.77,WSW,244,8.0,-999.0,71,-99.99,,,0.03,weatherlink.com 1.10,2013-05-24 05:50:00,
2013-05-24 02:05:00,47.8,39.0,29.77,WSW,254,12.0,-999.0,71,-99.99,,,0.03,weatherlink.com 1.10,2013-05-24 06:05:00,
2013-05-24 02:20:00,47.7,39.0,29.77,SW,227,13.0,-999.0,71,-99.99,,,0.03,weatherlink.com 1.10,2013-05-24 06:20:00,
2013-05-24 02:35:00,47.7,39.0,29.77,West,271,7.0,-999.0,71,-99.99,,,0.04,weatherlink.com 1.10,2013-05-24 06:35:00,
2013-05-24 02:50:00,47.6,39.0,29.77,WSW,245,16.0,-999.0,71,-99.99,,,0.06,weatherlink.com 1.10,2013-05-24 06:50:00,
2013-05-24 03:05:00,47.3,38.0,29.76,SW,224,12.0,-999.0,71,-99.99,,,0.06,weatherlink.com 1.10,2013-05-24 07:05:00,
2013-05-24 03:20:00,47.2,38.0,29.76,WNW,297,6.0,-999.0,71,-99.99,,,0.06,weatherlink.com 1.10,2013-05-24 07:20:00,
2013-05-24 03:35:00,47.2,38.0,29.76,West,259,8.0,-999.0,71,-99.99,,,0.09,weatherlink.com 1.10,2013-05-24 07:35:00,
2013-05-24 03:50:00,46.9,38.0,29.76,WSW,239,18.0,-999.0,71,-99.99,,,0.10,weatherlink.com 1.10,2013-05-24 07:50:00,
2013-05-24 04:05:00,46.2,37.0,29.76,WSW,257,16.0,-999.0,71,-99.99,,,0.12,weatherlink.com 1.10,2013-05-24 08:05:00,
2013-05-24 04:20:00,44.9,36.0,29.77,West,263,10.0,-999.0,72,-99.99,,,0.12,weatherlink.com 1.10,2013-05-24 08:20:00,
2013-05-24 04:35:00,43.9,36.0,29.77,WSW,239,7.0,-999.0,73,-99.99,,,0.13,weatherlink.com 1.10,2013-05-24 08:35:00,
2013-05-24 04:50:00,42.3,35.0,29.77,WSW,244,13.0,-999.0,75,-99.99,,,0.14,weatherlink.com 1.10,2013-05-24 08:50:00,
2013-05-24 05:05:00,41.4,34.0,29.78,WNW,287,5.0,-999.0,75,-99.99,,,0.14,weatherlink.com 1.10,2013-05-24 09:05:00,
2013-05-24 05:20:00,40.1,33.0,29.78,West,274,16.0,-999.0,77,-99.99,,,0.14,weatherlink.com 1.10,2013-05-24 09:20:00,
2013-05-24 05:35:00,38.5,32.0,29.78,WSW,254,11.0,-999.0,78,-99.99,,,0.14,weatherlink.com 1.10,2013-05-24 09:35:00,
2013-05-24 05:50:00,37.1,31.0,29.79,SW,226,12.0,-999.0,79,-99.99,,,0.14,weatherlink.com 1.10,2013-05-24 09:50:00,
2013-05-24 06:05:00,36.1,30.0,29.80,West,259,22.0,-999.0,79,-99.99,,,0.15,weatherlink.com 1.10,2013-05-24 10:05:00,
2013-05-24 06:20:00,35.3,29.0,29.81,WSW,250,16.0,-999.0,78,-99.99,,,0.15,weatherlink.com 1.10,2013-05-24 10:20:00,
2013-05-24 06:35:00,35.0,28.0,29.82,West,281,12.0,-999.0,77,-99.99,,,0.15,weatherlink.com 1.10,2013-05-24 10:35:00,
2013-05-24 06:51:00,34.6,28.0,29.83,WSW,238,11.0,-999.0,77,-99.99,,,0.15,weatherlink.com 1.10,2013-05-24 10:51:00,
2013-05-24 07:06:00,34.4,28.0,29.84,WSW,245,14.0,-999.0,76,-99.99,,,0.15,weatherlink.com 1.10,2013-05-24 11:06:00,
2013-05-24 07:21:00,34.2,27.0,29.84,West,265,10.0,-999.0,76,-99.99,,,0.15,weatherlink.com 1.10,2013-05-24 11:21:00,
2013-05-24 07:36:00,34.0,27.0,29.85,WNW,286,11.0,-999.0,76,-99.99,,,0.15,weatherlink.com 1.10,2013-05-24 11:36:00,
2013-05-24 07:51:00,33.9,27.0,29.86,West,276,18.0,-999.0,76,-99.99,,,0.15,weatherlink.com 1.10,2013-05-24 11:51:00,
2013-05-24 08:06:00,34.3,27.0,29.87,West,276,11.0,-999.0,75,-99.99,,,0.15,weatherlink.com 1.10,2013-05-24 12:06:00,
2013-05-24 08:21:00,33.8,27.0,29.87,SW,236,15.0,-999.0,76,-99.99,,,0.15,weatherlink.com 1.10,2013-05-24 12:21:00,
2013-05-24 08:35:00,33.8,27.0,29.88,WSW,251,8.0,-999.0,75,-99.99,,,0.16,weatherlink.com 1.10,2013-05-24 12:35:00,
2013-05-24 08:51:00,33.9,27.0,29.89,WSW,254,4.0,-999.0,75,-99.99,,,0.16,weatherlink.com 1.10,2013-05-24 12:51:00,
2013-05-24 09:06:00,33.8,27.0,29.89,West,260,16.0,-999.0,75,-99.99,,,0.16,weatherlink.com 1.10,2013-05-24 13:06:00,
2013-05-24 09:21:00,33.7,27.0,29.91,WSW,246,14.0,-999.0,75,-99.99,,,0.16,weatherlink.com 1.10,2013-05-24 13:21:00,
2013-05-24 09:36:00,33.7,27.0,29.90,WSW,240,12.0,-999.0,75,-99.99,,,0.16,weatherlink.com 1.10,2013-05-24 13:36:00,
2013-05-24 09:51:00,33.7,27.0,29.92,West,278,8.0,-999.0,75,-99.99,,,0.16,weatherlink.com 1.10,2013-05-24 13:51:00,
2013-05-24 10:06:00,33.7,27.0,29.92,WSW,245,15.0,-999.0,75,-99.99,,,0.16,weatherlink.com 1.10,2013-05-24 14:06:00,
2013-05-24 10:21:00,33.7,27.0,29.94,SW,226,4.0,-999.0,75,-99.99,,,0.16,weatherlink.com 1.10,2013-05-24 14:21:00,
2013-05-24 10:36:00,33.3,26.0,29.94,SSW,213,12.0,-999.0,75,-99.99,,,0.16,weatherlink.com 1.10,2013-05-24 14:36:00,
2013-05-24 10:51:00,33.5,26.0,29.94,West,265,7.0,-999.0,75,-99.99,,,0.16,weatherlink.com 1.10,2013-05-24 14:51:00,
2013-05-24 11:06:00,33.4,26.0,29.95,West,281,16.0,-999.0,75,-99.99,,,0.16,weatherlink.com 1.10,2013-05-24 15:06:00,
2013-05-24 11:21:00,33.4,26.0,29.96,WSW,256,9.0,-999.0,75,-99.99,,,0.16,weatherlink.com 1.10,2013-05-24 15:21:00,
2013-05-24 11:36:00,33.5,26.0,29.96,West,279,25.0,-999.0,75,-99.99,,,0.16,weatherlink.com 1.10,2013-05-24 15:36:00,
2013-05-24 11:51:00,33.6,26.0,29.98,WNW,286,15.0,-999.0,75,-99.99,,,0.16,weatherlink.com 1.10,2013-05-24 15:51:00,
2013-05-24 12:06:00,33.3,26.0,29.98,WSW,248,12.0,-999.0,75,-99.99,,,0.16,weatherlink.com 1.10,2013-05-24 16:06:00,
2013-05-24 12:21:00,33.2,26.0,29.99,West,273,28.0,-999.0,75,-99.99,,,0.17,weatherlink.com 1.10,2013-05-24 16:21:00,
2013-05-24 12:36:00,33.4,26.0,30.00,NNW,334,0.0,-999.0,75,-99.99,,,0.18,weatherlink.com 1.10,2013-05-24 16:36:00,
2013-05-24 12:51:00,33.0,26.0,30.01,West,267,9.0,-999.0,75,-99.99,,,0.18,weatherlink.com 1.10,2013-05-24 16:51:00,
2013-05-24 13:06:00,33.2,26.0,30.01,WSW,252,14.0,-999.0,75,-99.99,,,0.19,weatherlink.com 1.10,2013-05-24 17:06:00,
2013-05-24 13:21:00,33.2,26.0,30.02,SW,219,8.0,-999.0,75,-99.99,,,0.20,weatherlink.com 1.10,2013-05-24 17:21:00,
2013-05-24 13:37:00,32.5,25.0,30.02,WSW,254,20.0,-999.0,75,-99.99,,,0.20,weatherlink.com 1.10,2013-05-24 17:37:00,
2013-05-24 13:52:00,32.5,25.0,30.04,NNW,333,1.0,-999.0,75,-99.99,,,0.20,weatherlink.com 1.10,2013-05-24 17:52:00,
2013-05-24 14:07:00,32.6,26.0,30.05,WSW,244,7.0,-999.0,75,-99.99,,,0.20,weatherlink.com 1.10,2013-05-24 18:07:00,
2013-05-24 14:22:00,32.6,26.0,30.05,NW,304,7.0,-999.0,75,-99.99,,,0.20,weatherlink.com 1.10,2013-05-24 18:22:00,
2013-05-24 14:37:00,32.3,26.0,30.06,WNW,302,13.0,-999.0,76,-99.99,,,0.20,weatherlink.com 1.10,2013-05-24 18:37:00,
2013-05-24 14:52:00,32.7,26.0,30.07,West,276,16.0,-999.0,75,-99.99,,,0.20,weatherlink.com 1.10,2013-05-24 18:52:00,
2013-05-24 15:07:00,32.6,26.0,30.07,WSW,242,21.0,-999.0,75,-99.99,,,0.20,weatherlink.com 1.10,2013-05-24 19:07:00,
2013-05-24 15:22:00,33.0,26.0,30.07,NW,326,10.0,-999.0,75,-99.99,,,0.20,weatherlink.com 1.10,2013-05-24 19:22:00,
2013-05-24 15:37:00,33.2,26.0,30.08,West,273,16.0,-999.0,75,-99.99,,,0.21,weatherlink.com 1.10,2013-05-24 19:37:00,
2013-05-24 15:52:00,33.8,27.0,30.07,WNW,303,10.0,-999.0,75,-99.99,,,0.21,weatherlink.com 1.10,2013-05-24 19:52:00,
2013-05-24 16:07:00,34.8,28.0,30.08,WSW,242,14.0,-999.0,75,-99.99,,,0.21,weatherlink.com 1.10,2013-05-24 20:07:00,
2013-05-24 16:22:00,34.2,28.0,30.09,West,270,19.0,-999.0,77,-99.99,,,0.21,weatherlink.com 1.10,2013-05-24 20:22:00,
2013-05-24 16:37:00,35.0,30.0,30.09,West,275,13.0,-999.0,81,-99.99,,,0.21,weatherlink.com 1.10,2013-05-24 20:37:00,
2013-05-24 16:52:00,34.6,31.0,30.09,West,268,14.0,-999.0,86,-99.99,,,0.21,weatherlink.com 1.10,2013-05-24 20:52:00,
2013-05-24 17:07:00,35.4,33.0,30.09,SW,234,14.0,-999.0,91,-99.99,,,0.21,weatherlink.com 1.10,2013-05-24 21:07:00,
2013-05-24 17:22:00,35.4,33.0,30.10,NW,317,4.0,-999.0,90,-99.99,,,0.21,weatherlink.com 1.10,2013-05-24 21:22:00,
2013-05-24 17:37:00,35.6,32.0,30.11,NW,305,1.0,-999.0,88,-99.99,,,0.21,weatherlink.com 1.10,2013-05-24 21:37:00,
2013-05-24 17:52:00,36.6,32.0,30.10,SW,236,14.0,-999.0,82,-99.99,,,0.21,weatherlink.com 1.10,2013-05-24 21:52:00,
2013-05-24 18:07:00,36.2,32.0,30.11,West,277,19.0,-999.0,84,-99.99,,,0.21,weatherlink.com 1.10,2013-05-24 22:07:00,
2013-05-24 18:22:00,35.9,32.0,30.12,WNW,285,4.0,-999.0,85,-99.99,,,0.21,weatherlink.com 1.10,2013-05-24 22:22:00,
2013-05-24 18:37:00,35.6,32.0,30.12,West,279,16.0,-999.0,85,-99.99,,,0.21,weatherlink.com 1.10,2013-05-24 22:37:00,
2013-05-24 18:52:00,36.6,31.0,30.13,West,269,7.0,-999.0,80,-99.99,,,0.21,weatherlink.com 1.10,2013-05-24 22:52:00,
2013-05-24 19:07:00,35.5,31.0,30.13,WNW,288,20.0,-999.0,83,-99.99,,,0.21,weatherlink.com 1.10,2013-05-24 23:07:00,
2013-05-24 19:22:00,35.3,31.0,30.14,West,267,8.0,-999.0,85,-99.99,,,0.21,weatherlink.com 1.10,2013-05-24 23:22:00,
2013-05-24 19:37:00,34.3,31.0,30.14,West,263,18.0,-999.0,88,-99.99,,,0.21,weatherlink.com 1.10,2013-05-24 23:37:00,
2013-05-24 19:52:00,34.1,31.0,30.14,West,261,22.0,-999.0,89,-99.99,,,0.21,weatherlink.com 1.10,2013-05-24 23:52:00,
2013-05-24 20:07:00,33.7,31.0,30.15,WSW,251,13.0,-999.0,90,-99.99,,,0.21,weatherlink.com 1.10,2013-05-25 00:07:00,
2013-05-24 20:22:00,33.4,31.0,30.16,WSW,257,15.0,-999.0,91,-99.99,,,0.21,weatherlink.com 1.10,2013-05-25 00:22:00,
2013-05-24 20:37:00,33.3,31.0,30.16,WSW,244,12.0,-999.0,92,-99.99,,,0.21,weatherlink.com 1.10,2013-05-25 00:37:00,
2013-05-24 20:52:00,33.3,31.0,30.17,WSW,244,11.0,-999.0,92,-99.99,,,0.21,weatherlink.com 1.10,2013-05-25 00:52:00,
2013-05-24 21:07:00,33.2,31.0,30.18,SW,233,11.0,-999.0,93,-99.99,,,0.21,weatherlink.com 1.10,2013-05-25 01:07:00,
2013-05-24 21:22:00,33.0,31.0,30.18,West,269,21.0,-999.0,93,-99.99,,,0.21,weatherlink.com 1.10,2013-05-25 01:22:00,
2013-05-24 21:37:00,32.7,31.0,30.18,West,265,10.0,-999.0,93,-99.99,,,0.21,weatherlink.com 1.10,2013-05-25 01:37:00,
2013-05-24 21:52:00,32.5,31.0,30.18,West,279,8.0,-999.0,93,-99.99,,,0.21,weatherlink.com 1.10,2013-05-25 01:52:00,
2013-05-24 22:07:00,32.1,30.0,30.18,WSW,246,18.0,-999.0,93,-99.99,,,0.21,weatherlink.com 1.10,2013-05-25 02:07:00,
2013-05-24 22:22:00,31.9,30.0,30.19,WSW,258,12.0,-999.0,92,-99.99,,,0.21,weatherlink.com 1.10,2013-05-25 02:22:00,
2013-05-24 22:38:00,31.7,30.0,30.19,WSW,238,11.0,-999.0,92,-99.99,,,0.21,weatherlink.com 1.10,2013-05-25 02:38:00,
2013-05-24 22:53:00,31.4,29.0,30.20,SSW,213,12.0,-999.0,92,-99.99,,,0.21,weatherlink.com 1.10,2013-05-25 02:53:00,
2013-05-24 23:08:00,30.8,29.0,30.20,SW,229,16.0,-999.0,91,-99.99,,,0.21,weatherlink.com 1.10,2013-05-25 03:08:00,
2013-05-24 23:23:00,30.3,28.0,30.20,West,281,13.0,-999.0,90,-99.99,,,0.21,weatherlink.com 1.10,2013-05-25 03:23:00,
2013-05-24 23:38:00,30.0,27.0,30.20,West,261,9.0,-999.0,89,-99.99,,,0.21,weatherlink.com 1.10,2013-05-25 03:38:00,
2013-05-24 23:53:00,29.8,27.0,30.21,WNW,300,6.0,-999.0,90,-99.99,,,0.21,weatherlink.com 1.10,2013-05-25 03:53:00,